Regional Weather Roundup
Issued by NWS

Home | Current Version | Previous Version | Graphics & Text | Print | Product List | Glossary On
Versions: 1 2 3 4 5 6 7 8 9 10 11 12 13 14 15 16 17 18 19 20 21 22 23 24 25 26 27 28 29 30 31 32 33 34 35 36 37 38 39 40 41 42 43 44 45 46 47 48 49 50
000
ASUS43 KIND 250059
RWRIN

WEATHER ROUNDUP FOR INDIANA
NATIONAL WEATHER SERVICE INDIANAPOLIS IN
900 PM EDT FRI MAR 24 2017

NOTE: "FAIR" INDICATES FEW OR NO CLOUDS BELOW 12,000 FEET WITH NO
SIGNIFICANT WEATHER AND/OR OBSTRUCTIONS TO VISIBILITY.

* - STATION DOES NOT REPORT WEATHER SUCH AS PRECIPITATION OR FOG.

+ - STATION NOT QUALITY CONTROLLED BY THE NATIONAL WEATHER SERVICE.
    USE DATA WITH CAUTION...ESPECIALLY DEWPOINT AND RELATIVE
    HUMIDITY OBSERVATIONS.

INZ001>003-010>013-019-020-250200-
NORTHWEST INDIANA

CITY           SKY/WX    TMP DP  RH WIND       PRES   REMARKS
GARY /AIRPORT/ MOCLDY    43  37  81 NW10G29   30.04R
KNOX *+        CLOUDY    66  32  28 S15       29.99R
MONTICELLO +   CLOUDY    66  54  63 SW13      30.01R

$$

LMZ046-743>745-250200-
SOUTHERN LAKE MICHIGAN

STATION/POSITION TIME  TEMP    WIND        PRES    WAVE
                       AIR SEA DIR/SP/G            HT
                 (UTC) (F)     (DEG/KT/KT) (MB)    (FT)
BURNS HARBOR     0040   41     360/  5/ 10 1017.9R
MICHIGAN CITY    0030           20/ 15/ 16   N/A

$$

INZ004-005-014>016-021>024-250200-
NORTH CENTRAL INDIANA

CITY           SKY/WX    TMP DP  RH WIND       PRES   REMARKS
ELKHART        CLOUDY    68  54  60 SW12G17   29.99R
GOSHEN         CLOUDY    67  52  58 SW13      30.00R
SOUTH BEND     CLOUDY    68  54  60 SW16      29.99R

$$

INZ006>009-017-018-025>027-250200-
NORTHEAST INDIANA

CITY           SKY/WX    TMP DP  RH WIND       PRES   REMARKS
ANGOLA *+      CLEAR     66  55  68 SW13      30.01R
FORT WAYNE     MOCLDY    65  53  65 SW12      30.05R
KENDALLVILLE + PTCLDY    66  53  63 SW13      30.02R

$$

INZ028-029-035-036-043>045-051>053-250200-
WEST CENTRAL INDIANA

CITY           SKY/WX    TMP DP  RH WIND       PRES   REMARKS
CRAWFORDSVL +  CLOUDY    64  55  71 S9        30.06S
GREENCASTLE +  CLOUDY    66  52  59 SW6       30.08R
LAFAYETTE      CLOUDY    67  54  63 SW9       30.02R
TERRE HAUTE    CLOUDY    68  53  58 S9        30.07R

$$

INZ030>032-037>040-046>048-054>057-064-065-250200-
CENTRAL INDIANA

CITY           SKY/WX    TMP DP  RH WIND       PRES   REMARKS
COLUMBUS       CLEAR     66  54  63 S7        30.08R
INDIANAPOLIS   CLOUDY    66  52  60 SW12      30.07R
-EAGLE CREEK   MOCLDY    69  52  54 SW8       30.07R
KOKOMO +       PTCLDY    66  54  65 SW13      30.06R
SHELBYVILLE    PTCLDY    67  51  56 SW8       30.08R

$$

INZ033-034-041-042-049-050-058-059-250200-
EAST CENTRAL INDIANA

CITY           SKY/WX    TMP DP  RH WIND       PRES   REMARKS
MUNCIE         PTCLDY    69  52  54 SW9       30.07R
RICHMOND +     PTCLDY    59  52  77 S10       30.10S

$$

INZ060-061-067>069-081>083-085>088-250200-
SOUTHWEST INDIANA

CITY           SKY/WX    TMP DP  RH WIND       PRES   REMARKS
EVANSVILLE     CLOUDY    70  51  51 S6        30.08R
HUNTINGBURG *+ CLOUDY    68  52  56 S10       30.08S

$$

INZ062-063-066-070>080-084-089>092-250200-
SOUTH CENTRAL AND SOUTHEAST INDIANA

CITY           SKY/WX    TMP DP  RH WIND       PRES   REMARKS
BLOOMINGTON    MOCLDY    69  51  52 SW7       30.08R
MADISON *+     CLOUDY    66  50  55 S9        30.13F
SEYMOUR +      CLOUDY    68  52  56 S8        30.08F

$$




USA.gov is the U.S. government's official web portal to all federal, state and local government web resources and services.